Location: Elstree
(51.6403°N, 0.2969°W)
Time: 16:23:10
(UTC+00:00)

SJ 16-02 - Pass Details

Date: 18 June 2021
Orbit: 606 x 616 km, 75.0° (Epoch: 29 July)

Event Time Altitude Azimuth Distance (km) Brightness Sun altitude
Rises 00:01:54 0° 337° (NNW) 2,879 6.1 -15.0°
Reaches altitude 10° 00:04:09 10° 338° (NNW) 1,969 5.0 -15.0°
Maximum altitude 00:08:33 83° 65° (ENE) 619 1.3 -14.9°
Enters shadow 00:11:20 22° 154° (SSE) 1,332 2.6 -14.9°
